Location: Auttagershofen
(48.1940°N, 10.0237°E)
Time: 20:56:04
(UTC+00:00)

Cosmos 1190 Rocket - Pass Details

Date: 18 January 2026
Orbit: 753 x 775 km, 74.1° (Epoch: 18 February)

Event Time Altitude Azimuth Distance (km) Brightness Sun altitude
Rises 06:10:26 0° 202° (SSW) 3,206 7.2 -8.8°
Reaches altitude 10° 06:12:47 10° 203° (SSW) 2,282 6.5 -8.4°
Maximum altitude 06:17:59 86° 293° (WNW) 764 4.0 -7.6°
Drops below altitude 10° 06:23:11 10° 22° (NNE) 2,289 6.5 -6.8°
Sets 06:25:33 0° 23° (NNE) 3,217 7.2 -6.4°
